Lid_Strength_Index
1 2 3 4 8 7 8 7 5 6 6 4 3 4 5 5 7 9 1 0 -0 -0 -1 -1 -1 -1 -1 -1 -1 -1 -1 -1 -1 -1 -1 -1 -1 -1 -1 -1 -1 -1 -1 -2 -2 -2 -1 -1 -1
3 4 4 5 9 10 9 6 7 5 4 3 4 4 4 6 3 3 2 0 -0 -0 -1 -1 -1 -1 -1 -1 -1 -1 -1 -1 -1 -1 -1 -1 -1 -1 -1 -1 -1 -1 -1 -2 -2 -2 -2 -1 -1
3 4 6 6 8 10 9 6 5 5 4 4 4 3 4 5 3 2 0 -0 -0 -0 -1 -1 -1 -1 -1 -1 -1 -1 -1 -1 -1 -1 -1 -1 -1 -1 -1 -1 -1 -2 -1 -1 -1 -2 -2 -2 -1
4 5 6 8 9 7 7 6 5 5 4 3 4 5 3 2 2 1 0 -0 -0 -0 -1 -1 -1 -1 -1 -1 -1 -1 -1 -1 -1 -1 -1 -1 -1 -1 -1 -1 -1 -2 -2 -1 -1 -1 -2 -1 -1
4 5 7 8 8 6 5 5 5 5 5 4 4 5 5 2 1 0 0 -0 0 -0 -1 -1 -1 -1 -1 -1 -1 -1 -1 -1 -1 -1 -1 -1 -1 -1 -1 -1 -1 -1 -1 -1 -1 -1 -1 -1 -1
5 5 9 9 8 7 5 4 5 5 4 4 4 5 4 1 1 1 0 -0 -0 -0 -1 -1 -1 -1 -1 -1 -1 -1 -1 -1 -1 -1 -1 -1 -1 -1 -1 -1 -1 -1 -1 -1 -1 -1 -1 -1 -1
6 6 8 8 8 7 6 4 5 5 5 5 3 5 3 2 1 0 0 -0 -0 -0 -1 -1 -1 -1 -1 -1 -1 -1 -1 -1 -1 -1 -1 -1 -1 -1 -1 -1 -1 -1 -1 -1 -1 -1 -1 -1 -2
4 5 7 7 8 7 6 6 5 5 5 4 3 6 5 2 1 0 0 0 -0 -0 -0 -1 -1 -1 -1 -1 -1 -1 -1 -1 -1 -1 -1 -1 -1 -1 -1 -1 -1 -1 -1 -1 -1 -1 -1 -2 -2
3 6 8 7 7 6 5 7 5 5 5 5 4 4 3 1 1 1 1 1 1 0 -0 -0 -0 -1 -1 -1 -1 -1 -1 -1 -1 -1 -1 -1 -2 -2 -2 -3 -2 -1 -1 -1 -1 -1 -2 -2 -2
5 7 7 5 5 5 4 6 4 6 6 6 5 4 3 1 2 2 2 2 1 1 0 -0 -1 -1 -1 -1 -1 -2 -1 -1 -1 -2 -2 -2 -2 -2 -2 -2 -1 -1 -1 -1 -1 -2 -1 -1 -1
5 7 5 5 4 4 4 5 4 5 6 6 5 4 3 4 2 2 2 1 1 1 0 -0 -1 -1 -1 -1 -1 -1 -1 -1 -1 -2 -2 -3 -2 -2 -1 -1 -1 -2 -2 -1 -1 -1 -1 -1 -1
6 5 5 4 4 5 5 4 4 4 4 4 4 4 4 4 4 3 2 2 1 1 0 -0 -0 -1 -1 -1 -0 -1 -0 -1 -1 -1 -2 -2 -1 -1 -1 -1 -1 -2 -1 -1 -2 -1 -2 -1 -1
5 5 4 4 4 5 5 5 5 5 4 4 4 4 4 3 3 3 2 1 1 1 1 0 -0 -0 -1 -1 -1 -1 -1 -1 -1 -1 -2 -1 -1 -1 -1 -1 -1 -1 -1 -1 -1 -1 -1 -1 -1
4 5 4 4 5 4 6 6 5 5 3 4 4 4 3 3 3 2 2 1 1 0 0 -0 -0 -0 -0 -0 -1 -0 -1 -1 -1 -1 -1 -2 -1 -1 -1 -1 -1 -1 -1 -1 -1 -1 -1 -1 -1
4 6 5 5 5 5 4 7 7 4 4 4 4 3 3 3 2 2 2 1 1 1 0 0 0 -1 -0 -0 -0 -1 -1 -1 -1 -1 -2 -1 -1 -1 -1 -0 -0 -1 -2 -2 -1 -1 -1 -1 -1
6 6 8 5 5 5 5 8 5 3 4 5 4 3 3 2 2 1 1 0 0 -0 0 0 0 -0 -0 -0 -0 -0 -0 -0 -0 -1 -1 -1 -1 -2 -0 -0 -0 -1 -1 -1 -0 -0 -0 -0 -0
6 9 8 7 5 5 6 7 5 4 5 4 4 3 3 2 2 1 1 1 0 -0 -0 0 -0 0 -0 -0 -0 -0 -1 -0 -0 -1 -0 -1 -1 -1 -0 0 -0 -1 -0 -0 -0 -0 -0 0 0
9 9 8 8 6 6 7 7 5 4 4 4 4 3 3 3 2 1 1 0 0 -0 -1 -0 -0 0 -0 -0 -0 0 0 -0 -0 -0 -0 -1 -1 -1 -0 -0 -0 -0 -0 -0 -0 -0 -0 0 0
7 8 8 7 5 7 7 7 6 4 5 4 4 4 3 3 2 1 1 0 0 0 -0 -1 0 0 0 1 1 1 1 1 0 -0 -1 -0 -1 -1 -0 -0 -0 -0 0 0 -0 0 1 1 0
8 8 8 7 6 6 7 7 6 5 5 4 4 4 3 3 2 2 1 1 0 0 -0 -0 -0 -0 0 1 1 1 1 0 0 -0 -0 -1 -0 -1 -0 -0 -0 -0 0 0 0 1 1 1 1
7 8 8 8 7 6 7 8 7 5 4 4 4 3 3 3 3 2 2 1 1 0 -0 -0 -1 -1 -0 -0 0 0 0 0 1 1 0 -0 -0 -0 -0 -0 -0 -0 -0 1 0 0 1 2 1
9 6 7 8 8 11 7 11 8 6 6 5 4 4 3 3 2 2 2 1 1 0 -0 -1 -1 -1 -1 -0 0 1 2 2 1 1 0 0 -0 -0 -0 -0 -0 -0 -0 0 0 0 0 1 2
8 6 7 7 8 9 9 10 8 6 7 6 5 4 3 3 2 2 2 1 1 0 0 -0 -1 -1 -1 -1 0 1 1 1 1 1 0 0 -0 -0 -0 -0 -0 -0 0 -0 -0 0 1 1 1
5 7 7 7 8 12 9 10 10 8 7 6 5 4 3 3 3 2 1 1 1 0 0 -0 -0 -0 -1 -1 -0 0 1 1 2 1 1 1 1 0 -0 -0 -0 -0 0 0 0 -0 0 1 1
7 8 12 13 13 13 9 10 9 6 6 5 5 4 4 3 3 2 2 2 1 1 1 1 0 0 -0 -0 -0 0 1 1 1 1 1 1 1 1 1 0 0 0 0 -0 -0 0 0 0 1
8 8 12 16 15 12 9 11 9 6 5 5 4 4 4 3 3 3 2 2 2 1 1 1 1 1 0 0 0 -0 0 1 1 1 1 1 1 1 0 0 -0 -0 -0 -0 -0 0 0 0 1
10 11 7 11 10 12 11 9 7 6 6 5 5 5 4 4 3 3 3 2 2 1 1 1 1 1 0 0 0 0 0 0 1 0 0 1 0 0 1 0 0 0 0 -0 -0 1 1 0 0
8 7 12 11 17 17 13 11 11 8 7 6 5 5 4 4 3 3 3 2 2 1 1 0 0 1 0 0 0 0 0 0 0 0 1 1 0 1 1 0 0 0 0 0 -0 0 0 0 1
9 10 10 10 12 17 18 13 8 8 7 7 6 5 4 4 4 4 3 2 2 2 1 1 1 1 0 0 0 0 1 0 0 1 1 0 0 1 0 0 0 0 0 0 0 0 0 1 1
8 9 10 15 16 13 14 14 6 7 6 6 5 4 4 4 4 4 3 3 2 2 2 1 1 1 1 1 0 0 0 1 1 1 1 -0 0 -0 0 0 0 0 1 -0 0 1 0 0 1